Regional Weather Roundup
Issued by NWS San Angelo, TX

Home | Current Version | Previous Version | Text Only | Print | Product List | Glossary On
Versions: 1 2 3 4 5 6 7 8 9 10 11 12 13 14 15 16 17 18 19 20 21 22 23 24 25 26 27 28 29 30 31 32 33 34 35 36 37 38 39 40 41 42 43 44 45 46 47 48 49 50
000
ASUS44 KSJT 311411
RWRSJT
WEST CENTRAL TEXAS REGIONAL WEATHER ROUNDUP
NATIONAL WEATHER SERVICE SAN ANGELO TX
900 AM CDT TUE MAY 31 2016

NOTE: "FAIR" INDICATES FEW OR NO CLOUDS BELOW 12,000 FEET WITH NO
SIGNIFICANT WEATHER AND/OR OBSTRUCTIONS TO VISIBILITY.

TXZ049-054-064>066-071>073-076>078-098-099-113-114-127-128-139-140-
154-155-168>170-311500
...LOCATIONS ACROSS WEST CENTRAL TEXAS...

CITY           SKY/WX    TMP DP  RH WIND       PRES   REMARKS
SAN ANGELO     CLOUDY    73  66  78 NW6       29.93R
ABILENE        MOSUNNY   74  66  76 S5        29.93R
DYESS AFB      MOSUNNY   76  63  63 SE7       29.92R
JUNCTION       CLOUDY    75  69  81 VRB5      29.93R
SWEETWATER     SUNNY     73  64  73 S9        29.96R
BROWNWOOD      PTSUNNY   73  72  94 SE10      29.92R
COLEMAN        CLOUDY    73  66  78 S10       29.93R
SONORA         CLOUDY    72  68  88 CALM      29.96R
OZONA          LGT RAIN  70  63  78 SW5       29.99R
BRADY          NOT AVBL
$$

TEXAS PANHANDLE/OKLAHOMA PANHANDLE

CITY           SKY/WX    TMP DP  RH WIND       PRES   REMARKS
AMARILLO       SUNNY     60  53  77 E18       30.03R
BORGER         PTSUNNY   61  54  77 NE13      30.01F
CANADIAN         N/A    N/A N/A N/A MISG        N/A
DALHART        CLOUDY    62  54  74 E9        30.03R
DUMAS          MOSUNNY   58  54  85 E13       30.03R
GUYMON         NOT AVBL
HEREFORD       CLOUDY    72  54  53 E18G26    30.02R
PAMPA          MOSUNNY   64  55  71 NE14      30.02S
PERRYTON       SUNNY     71  54  54 NE9       29.98S
$$

SOUTHERN PANHANDLE/SOUTH PLAINS/ROLLING PLAINS

CITY           SKY/WX    TMP DP  RH WIND       PRES   REMARKS
LUBBOCK        CLOUDY    64  57  78 E7        29.98R
SNYDER           N/A     67  64  91 W5        29.95R
CHILDRESS      CLOUDY    71  67  87 NW8       29.96R
SEMINOLE       MOSUNNY   67  63  86 SW8       29.97R
$$

PERMIAN BASIN

CITY           SKY/WX    TMP DP  RH WIND       PRES   REMARKS
MIDLAND        CLOUDY    72  63  73 SW6       29.95R
ODESSA         CLOUDY    70  61  73 S5        29.96S
WINK           CLOUDY    67  58  72 CALM      29.91F
$$

FAR WEST/SOUTHWEST MOUNTAINS/TRANS PECOS

CITY           SKY/WX    TMP DP  RH WIND       PRES   REMARKS
ALPINE         CLOUDY    58  57  97 CALM      30.12S THUNDER
DRYDEN           N/A     73  64  73 NW15      29.94R
EL PASO        MOSUNNY   66  59  78 S8        29.98R
FORT STOCKTON  NOT AVBL
GUADALUPE PASS NOT AVBL
MARFA          TSTM      58  56  93 W7        30.12R
PECOS          CLOUDY    67  60  78 SW3       29.95F
$$

DALLAS/FORT WORTH METROPLEX

CITY           SKY/WX    TMP DP  RH WIND       PRES   REMARKS
DFW AIRPORT    PTSUNNY   78  71  79 S14       29.89R
FTW MEACHAM    PTSUNNY   77  71  82 S10       29.90R
DAL-EXECUTIVE  SUNNY     78  71  79 VRB5      29.90R
GRAND PRAIRIE  NOT AVBL
ADDISON        MOSUNNY   79  73  83 S8        29.90S
MESQUITE       PTSUNNY   75  73  94 S5        29.90R
LANCASTER      PTSUNNY   76  70  83 SW7       29.91R
$$

NORTH CENTRAL TEXAS

CITY           SKY/WX    TMP DP  RH WIND       PRES   REMARKS
SHRMAN/DENISON CLOUDY    73  65  76 S5        29.92R
GAINESVILLE    CLOUDY    75  70  84 S8        29.93R
BRIDGEPORT     PTSUNNY   76  70  80 SW9       29.92R
DENTON         PTSUNNY   76  71  85 S10       29.91R
WAXAHACHIE     CLOUDY    76  74  93 SW8       29.92R
GRANBURY       PTSUNNY   76  71  83 SE5       29.92S
$$

WESTERN NORTH TEXAS

CITY           SKY/WX    TMP DP  RH WIND       PRES   REMARKS
WICHITA FALLS  CLOUDY    73  67  81 SW6       29.89R
VERNON         PTSUNNY   72  66  81 NW5       29.92R
BRECKENRIDGE   CLOUDY    74  66  75 CALM      29.92R
COMANCHE       CLOUDY    75  74  95 S9        29.92R
$$

CENTRAL AND SOUTH CENTRAL TEXAS

CITY           SKY/WX    TMP DP  RH WIND       PRES   REMARKS
AUSTIN/BERGSTM CLOUDY    77  74  90 S7        29.90S
WACO           CLOUDY    77  71  82 S10       29.91R
HILLSBORO      CLOUDY    75  72  88 S8        29.92R
TEMPLE         CLOUDY    75  72  90 S13       29.91S
KILLEEN-GRAY   NOT AVBL
FORT HOOD      CLOUDY    75  72  90 S8        29.89R
GEORGETOWN     CLOUDY    75  72  88 SE5       29.91R
LAGO VISTA     CLOUDY    76  73  90 S6        29.93S
SAN MARCOS     CLOUDY    75  73  94 S9        29.91S FOG
NEW BRAUNFELS  CLOUDY    77  73  87 S7        29.90R
RANDOLPH AFB   CLOUDY    76  76 100 SE8       29.91R
SAN ANTONIO    CLOUDY    77  73  87 SE10      29.91R
STINSON        CLOUDY    79  74  84 SE8       29.88R
PLEASANTON     NOT AVBL
LA GRANGE        N/A     78  76  94 S5        29.90S
GIDDINGS       CLOUDY    74  73  97 S5        29.96S
$$

EAST TEXAS

CITY           SKY/WX    TMP DP  RH WIND       PRES   REMARKS
PARIS          CLOUDY    72  63  73 E6        29.94R
CLARKSVILLE    NOT AVBL
TYLER          MOSUNNY   77  71  82 S9        29.91S
LONGVIEW       SUNNY     76  71  85 SW6       29.92R
PALESTINE      PTSUNNY   76  73  90 S3        29.92S
NACOGDOCHES    CLOUDY    72  72 100 S5        29.92S
$$

TEXAS HILL COUNTRY AND EDWARDS PLATEAU

CITY           SKY/WX    TMP DP  RH WIND       PRES   REMARKS
LLANO          MOSUNNY   79  75  89 S3        29.94S
HORSESHOE BAY  CLOUDY    77  73  87 S6        29.92S
KERRVILLE      LGT RAIN  74  73  95 SE8       29.93S
FREDERICKSBRG  CLOUDY    74  71  87 SE6       29.94S
ROCKSPRINGS    CLOUDY    73  70  88 SE12      29.97R FOG
HONDO          CLOUDY    76  74  93 SE10      29.92R
UVALDE         CLOUDY    74  73  95 SE3       29.91R FOG
DEL RIO        LGT RAIN  74  70  87 E5        29.87R
$$

SOUTHEAST TEXAS

CITY           SKY/WX    TMP DP  RH WIND       PRES   REMARKS
COLLEGE STN    CLOUDY    75  74  96 S8        29.91F
CALDWELL       CLOUDY    73  73 100 S8        29.94F FOG
CROCKETT       MOSUNNY   75  72  88 S9        29.94S
BRENHAM        PTSUNNY   78  76  95 S3        29.92S
HUNTSVILLE     SUNNY     78  72  81 S8        29.93R
CONROE         SUNNY     77  72  84 S5        29.93S
HOUSTON BUSH   MOSUNNY   78  72  81 S7        29.93R
HOUSTON HOBBY  MOSUNNY   79  73  82 S7        29.92S
PERLAND        SUNNY     81  72  74 S6        29.94R
WHARTON        MOSUNNY   79  76  92 S7        29.93R
$$

THE UPPER TEXAS COAST

CITY           SKY/WX    TMP DP  RH WIND       PRES   REMARKS
ORANGE         MOSUNNY   80  71  74 CALM      29.94S
PORT ARTHUR    MOSUNNY   81  72  74 SW3       29.93R
GALVESTON      SUNNY     79  71  76 S8        29.94R
ANGLETON       MOSUNNY   81  73  76 S9        29.92R
BAY CITY       LGT RAIN  82  75  80 S6        29.92S
$$

TEXAS COASTAL BEND, RIO GRANDE PLAINS DEEP SOUTH TEXAS

CITY           SKY/WX    TMP DP  RH WIND       PRES   REMARKS
VICTORIA       MOSUNNY   80  75  84 S8        29.91R
BEEVILLE       FAIR      78  77  98 SE8       29.88S
ROCKPORT       PTSUNNY   83  74  74 SE12      29.88R
PORT ARANSAS   PTSUNNY   82  76  82 S13       29.88S
PORT LAVACA    MOSUNNY   81  76  87 S8        29.90S
CORPUS CHRISTI PTSUNNY   83  76  79 SE15      29.88R
KINGSVILLE NAS PTSUNNY   82  79  90 SE15      29.86R
COTULLA        MOSUNNY   81  74  79 SE13      29.86R
LAREDO         PTSUNNY   80  74  81 NE6       29.86R
BROWNSVILLE    PTSUNNY   83  75  77 SE17G24   29.87F
PORT ISABEL    PTSUNNY   85  76  74 SE17      29.86F
HEBBRONVILLE   CLOUDY    79  74  86 S13       29.86F
MCALLEN        PTSUNNY   84  77  79 E14       29.87S
WESLACO        MOSUNNY   83  76  77 SE13G18   29.86S
FALFURRIAS     PTSUNNY   83  76  79 SE9       29.86R
EDINBURG       PTSUNNY   84  76  77 SE10      29.87S
$$




USA.gov is the U.S. government's official web portal to all federal, state and local government web resources and services.